Location: Rumah Apan
(2.7833°N, 113.9500°E)
Time: 23:58:23
(UTC+00:00)

Cosmos 1602 Rocket - Pass Details

Date: 25 July 2021
Orbit: 604 x 632 km, 82.5° (Epoch: 22 September)

Event Time Altitude Azimuth Distance (km) Brightness Sun altitude
Rises 10:53:42 0° 174° (S) 2,907 6.7 -4.5°
Reaches altitude 10° 10:56:01 10° 168° (SSE) 1,995 5.9 -5.0°
Maximum altitude 11:00:16 48° 94° (E) 807 3.8 -6.0°
Drops below altitude 10° 11:04:29 10° 19° (NNE) 1,972 6.2 -7.0°
Sets 11:06:45 0° 14° (NNE) 2,870 7.1 -7.5°
